| time (UTC) | temp C | wind direction | speed KPH | gust KPH | rain 1hr cm | rain 24hr cm | rain mn cm | humidity % | barometer mb |
| 20260508122222 | 7 | 278 | 3.2 | 4.8 | 0.00 | 0.00 | 0.00 | 71 | 1007.5 |
| 20260508121720 | 7 | 245 | 3.2 | 11.3 | 0.00 | 0.00 | 0.00 | 71 | 1007.5 |
| 20260508121218 | 7 | 11 | 1.6 | 9.7 | 0.00 | 0.00 | 0.00 | 72 | 1007.6 |
| 20260508120715 | 7 | 357 | 3.2 | 4.8 | 0.00 | 0.00 | 0.00 | 73 | 1007.6 |
| 20260508120213 | 7 | 24 | 3.2 | 4.8 | 0.00 | 0.00 | 0.00 | 71 | 1007.3 |
| 20260508115710 | 6 | 310 | 1.6 | 3.2 | 0.00 | 0.00 | 0.00 | 72 | 1007.4 |
| 20260508115207 | 7 | 340 | 0.0 | 4.8 | 0.00 | 0.00 | 0.00 | 72 | 1007.5 |
| 20260508114704 | 6 | 19 | 1.6 | 3.2 | 0.00 | 0.00 | 0.00 | 72 | 1007.7 |
| 20260508114201 | 6 | 281 | 4.8 | 8.0 | 0.00 | 0.00 | 0.00 | 72 | 1007.6 |
| 20260508113657 | 6 | 298 | 1.6 | 8.0 | 0.00 | 0.00 | 0.00 | 72 | 1007.6 |
| 20260508113156 | 6 | 240 | 1.6 | 3.2 | 0.00 | 0.00 | 0.00 | 72 | 1007.5 |
| 20260508112652 | 6 | 333 | 3.2 | 4.8 | 0.00 | 0.00 | 0.00 | 72 | 1007.6 |
| 20260508112149 | 6 | 269 | 4.8 | 4.8 | 0.00 | 0.00 | 0.00 | 72 | 1007.6 |
| 20260508111645 | 6 | 252 | 4.8 | 8.0 | 0.00 | 0.00 | 0.00 | 72 | 1007.6 |
| 20260508111143 | 6 | 257 | 3.2 | 4.8 | 0.00 | 0.00 | 0.00 | 73 | 1007.4 |
| 20260508110640 | 6 | 327 | 1.6 | 3.2 | 0.00 | 0.00 | 0.00 | 73 | 1007.4 |
| 20260508110137 | 6 | 331 | 1.6 | 8.0 | 0.00 | 0.00 | 0.00 | 73 | 1007.2 |
| 20260508105631 | 6 | 318 | 3.2 | 4.8 | 0.00 | 0.00 | 0.00 | 72 | 1007.5 |
| 20260508105129 | 6 | 328 | 1.6 | 3.2 | 0.00 | 0.00 | 0.00 | 74 | 1007.3 |
| 20260508104627 | 5 | 0 | 4.8 | 4.8 | 0.00 | 0.00 | 0.00 | 72 | 1007.2 |
| 20260508104123 | 5 | 290 | 1.6 | 3.2 | 0.00 | 0.00 | 0.00 | 72 | 1007.1 |
| 20260508103620 | 5 | 306 | 1.6 | 3.2 | 0.00 | 0.00 | 0.00 | 73 | 1006.8 |
| 20260508103117 | 5 | 308 | 3.2 | 3.2 | 0.00 | 0.00 | 0.00 | 72 | 1007.0 |
| 20260508102614 | 5 | 308 | 1.6 | 3.2 | 0.00 | 0.00 | 0.00 | 72 | 1006.8 |
| 20260508102112 | 5 | 267 | 1.6 | 3.2 | 0.00 | 0.00 | 0.00 | 72 | 1006.9 |
| 20260508101609 | 5 | 252 | 0.0 | 3.2 | 0.00 | 0.00 | 0.00 | 72 | 1006.7 |
| 20260508101107 | 5 | 354 | 0.0 | 3.2 | 0.00 | 0.00 | 0.00 | 72 | 1006.6 |
| 20260508100604 | 5 | 335 | 0.0 | 3.2 | 0.00 | 0.00 | 0.00 | 73 | 1006.6 |
| 20260508095558 | 5 | 320 | 1.6 | 3.2 | 0.00 | 0.00 | 0.00 | 74 | 1006.5 |
| 20260508095055 | 4 | 280 | 1.6 | 3.2 | 0.00 | 0.00 | 0.00 | 75 | 1006.6 |
| 20260508094552 | 3 | 347 | 1.6 | 3.2 | 0.00 | 0.00 | 0.00 | 77 | 1006.3 |
| 20260508094049 | 3 | 256 | 1.6 | 3.2 | 0.00 | 0.00 | 0.00 | 76 | 1006.5 |
| 20260508093546 | 3 | 0 | 1.6 | 1.6 | 0.00 | 0.00 | 0.00 | 80 | 1006.4 |
| 20260508093044 | 3 | 19 | 0.0 | 0.0 | 0.00 | 0.00 | 0.00 | 83 | 1006.7 |
| 20260508092541 | 3 | 19 | 0.0 | 0.0 | 0.00 | 0.00 | 0.00 | 80 | 1006.2 |
| 20260508092040 | 3 | 18 | 0.0 | 0.0 | 0.00 | 0.00 | 0.00 | 78 | 1006.4 |
| 20260508091536 | 3 | 18 | 0.0 | 1.6 | 0.00 | 0.00 | 0.00 | 79 | 1006.3 |
| 20260508091033 | 3 | 18 | 0.0 | 0.0 | 0.00 | 0.00 | 0.00 | 78 | 1006.5 |
| 20260508090532 | 3 | 19 | 0.0 | 1.6 | 0.00 | 0.00 | 0.00 | 78 | 1006.2 |
| 20260508090028 | 3 | 17 | 1.6 | 1.6 | 0.00 | 0.00 | 0.00 | 78 | 1006.4 |
| 20260508085524 | 4 | 288 | 0.0 | 1.6 | 0.00 | 0.00 | 0.00 | 71 | 1006.5 |
| 20260508085021 | 4 | 333 | 0.0 | 1.6 | 0.00 | 0.00 | 0.00 | 72 | 1006.3 |
| 20260508084518 | 4 | 333 | 0.0 | 0.0 | 0.00 | 0.00 | 0.00 | 70 | 1006.4 |
| 20260508084016 | 4 | 353 | 0.0 | 1.6 | 0.00 | 0.00 | 0.00 | 71 | 1006.2 |
| 20260508083513 | 5 | 293 | 0.0 | 1.6 | 0.00 | 0.00 | 0.00 | 69 | 1006.3 |
| 20260508083009 | 5 | 352 | 1.6 | 1.6 | 0.00 | 0.00 | 0.00 | 69 | 1006.2 |
| 20260508082505 | 5 | 323 | 1.6 | 1.6 | 0.00 | 0.00 | 0.00 | 69 | 1006.2 |
| 20260508082003 | 5 | 328 | 1.6 | 3.2 | 0.00 | 0.00 | 0.00 | 68 | 1006.3 |
| 20260508081500 | 5 | 299 | 3.2 | 4.8 | 0.00 | 0.00 | 0.00 | 69 | 1006.2 |
| 20260508080955 | 5 | 341 | 0.0 | 1.6 | 0.00 | 0.00 | 0.00 | 69 | 1005.9 |
| 20260508080454 | 5 | 263 | 1.6 | 4.8 | 0.00 | 0.00 | 0.00 | 68 | 1005.8 |
| 20260508075950 | 5 | 288 | 3.2 | 4.8 | 0.00 | 0.00 | 0.00 | 68 | 1005.8 |
| 20260508075447 | 5 | 271 | 1.6 | 8.0 | 0.00 | 0.00 | 0.00 | 68 | 1005.8 |
| 20260508074945 | 5 | 319 | 1.6 | 3.2 | 0.00 | 0.00 | 0.00 | 68 | 1005.9 |
| 20260508074443 | 5 | 248 | 0.0 | 3.2 | 0.00 | 0.00 | 0.00 | 67 | 1006.0 |
| 20260508073939 | 5 | 358 | 3.2 | 8.0 | 0.00 | 0.00 | 0.00 | 66 | 1006.0 |
| 20260508073437 | 5 | 236 | 1.6 | 3.2 | 0.00 | 0.00 | 0.00 | 66 | 1005.8 |
| 20260508072934 | 5 | 284 | 4.8 | 4.8 | 0.00 | 0.00 | 0.00 | 65 | 1005.7 |
| 20260508072430 | 5 | 229 | 3.2 | 9.7 | 0.00 | 0.00 | 0.00 | 64 | 1005.7 |
| 20260508071927 | 5 | 246 | 1.6 | 3.2 | 0.00 | 0.00 | 0.00 | 64 | 1005.7 |
| 20260508071425 | 6 | 250 | 1.6 | 4.8 | 0.00 | 0.00 | 0.00 | 63 | 1005.7 |
| 20260508070923 | 6 | 308 | 3.2 | 9.7 | 0.00 | 0.00 | 0.00 | 62 | 1005.7 |
| 20260508070420 | 6 | 254 | 3.2 | 4.8 | 0.00 | 0.00 | 0.00 | 63 | 1005.8 |
| 20260508065918 | 6 | 316 | 1.6 | 4.8 | 0.00 | 0.00 | 0.00 | 63 | 1005.8 |
| 20260508065416 | 6 | 261 | 3.2 | 3.2 | 0.00 | 0.00 | 0.00 | 64 | 1005.8 |
| 20260508064914 | 6 | 307 | 1.6 | 8.0 | 0.00 | 0.00 | 0.00 | 63 | 1005.9 |
| 20260508064411 | 6 | 293 | 4.8 | 8.0 | 0.00 | 0.00 | 0.00 | 63 | 1006.0 |
| 20260508063909 | 6 | 314 | 1.6 | 4.8 | 0.00 | 0.00 | 0.00 | 61 | 1005.8 |
| 20260508063406 | 6 | 286 | 1.6 | 4.8 | 0.00 | 0.00 | 0.00 | 61 | 1005.9 |
| 20260508062903 | 6 | 270 | 3.2 | 4.8 | 0.00 | 0.00 | 0.00 | 60 | 1006.0 |
| 20260508062401 | 6 | 281 | 3.2 | 3.2 | 0.00 | 0.00 | 0.00 | 60 | 1006.0 |
| 20260508061858 | 6 | 357 | 4.8 | 4.8 | 0.00 | 0.00 | 0.00 | 59 | 1006.0 |
| 20260508061355 | 6 | 229 | 0.0 | 8.0 | 0.00 | 0.00 | 0.00 | 59 | 1006.1 |
| 20260508060851 | 6 | 234 | 3.2 | 4.8 | 0.00 | 0.00 | 0.00 | 58 | 1006.0 |
| 20260508060349 | 6 | 268 | 3.2 | 3.2 | 0.00 | 0.00 | 0.00 | 58 | 1006.1 |
| 20260508055844 | 6 | 272 | 3.2 | 4.8 | 0.00 | 0.00 | 0.00 | 58 | 1006.2 |
| 20260508055342 | 6 | 259 | 4.8 | 8.0 | 0.00 | 0.00 | 0.00 | 57 | 1006.2 |
| 20260508054838 | 6 | 316 | 4.8 | 8.0 | 0.00 | 0.00 | 0.00 | 57 | 1006.2 |
| 20260508054336 | 6 | 257 | 3.2 | 4.8 | 0.00 | 0.00 | 0.00 | 57 | 1006.2 |
| 20260508053832 | 6 | 4 | 1.6 | 3.2 | 0.00 | 0.00 | 0.00 | 57 | 1006.2 |
| 20260508053330 | 6 | 307 | 1.6 | 3.2 | 0.00 | 0.00 | 0.00 | 59 | 1006.3 |
| 20260508052827 | 6 | 317 | 1.6 | 3.2 | 0.00 | 0.00 | 0.00 | 58 | 1006.5 |
| 20260508052324 | 6 | 358 | 1.6 | 3.2 | 0.00 | 0.00 | 0.00 | 62 | 1006.5 |
| 20260508051820 | 6 | 14 | 0.0 | 1.6 | 0.00 | 0.00 | 0.00 | 64 | 1006.5 |
| 20260508051316 | 6 | 24 | 0.0 | 1.6 | 0.00 | 0.00 | 0.00 | 64 | 1006.4 |
| 20260508050812 | 7 | 346 | 1.6 | 4.8 | 0.00 | 0.00 | 0.00 | 59 | 1006.3 |
| 20260508050310 | 6 | 270 | 3.2 | 4.8 | 0.00 | 0.00 | 0.00 | 59 | 1006.6 |
| 20260508045805 | 6 | 356 | 0.0 | 3.2 | 0.00 | 0.00 | 0.00 | 62 | 1006.4 |
| 20260508045306 | 6 | 16 | 0.0 | 1.6 | 0.00 | 0.00 | 0.00 | 61 | 1006.4 |
| 20260508044801 | 6 | 24 | 1.6 | 3.2 | 0.00 | 0.00 | 0.00 | 65 | 1006.6 |
| 20260508044257 | 7 | 30 | 1.6 | 4.8 | 0.00 | 0.00 | 0.00 | 66 | 1006.8 |
| 20260508043753 | 7 | 31 | 1.6 | 3.2 | 0.00 | 0.00 | 0.00 | 63 | 1006.6 |
| 20260508043251 | 7 | 41 | 1.6 | 3.2 | 0.00 | 0.00 | 0.00 | 57 | 1006.6 |
| 20260508042747 | 7 | 32 | 1.6 | 4.8 | 0.00 | 0.00 | 0.00 | 56 | 1006.6 |
| 20260508042245 | 7 | 347 | 0.0 | 3.2 | 0.00 | 0.00 | 0.00 | 55 | 1006.7 |
| 20260508041741 | 7 | 8 | 1.6 | 3.2 | 0.00 | 0.00 | 0.00 | 56 | 1006.6 |
| 20260508041238 | 7 | 351 | 1.6 | 1.6 | 0.00 | 0.00 | 0.00 | 56 | 1006.7 |
| 20260508040734 | 7 | 2 | 1.6 | 3.2 | 0.00 | 0.00 | 0.00 | 55 | 1006.7 |
| 20260508040232 | 7 | 25 | 1.6 | 4.8 | 0.00 | 0.00 | 0.00 | 55 | 1006.8 |
| 20260508035729 | 7 | 265 | 1.6 | 8.0 | 0.00 | 0.58 | 0.58 | 53 | 1007.1 |
| 20260508035226 | 7 | 289 | 0.0 | 1.6 | 0.00 | 0.58 | 0.58 | 55 | 1006.9 |
| 20260508034723 | 7 | 328 | 3.2 | 3.2 | 0.00 | 0.58 | 0.58 | 54 | 1007.1 |
| 20260508034220 | 7 | 268 | 3.2 | 4.8 | 0.00 | 0.58 | 0.58 | 54 | 1007.2 |
| 20260508033717 | 7 | 301 | 0.0 | 3.2 | 0.00 | 0.58 | 0.58 | 55 | 1007.0 |
| 20260508033216 | 7 | 358 | 1.6 | 4.8 | 0.00 | 0.58 | 0.58 | 55 | 1007.3 |
| 20260508032713 | 6 | 333 | 3.2 | 3.2 | 0.00 | 0.58 | 0.58 | 56 | 1007.2 |
| 20260508032209 | 6 | 343 | 1.6 | 3.2 | 0.00 | 0.58 | 0.58 | 57 | 1007.0 |
| 20260508031706 | 6 | 358 | 1.6 | 1.6 | 0.00 | 0.58 | 0.58 | 57 | 1007.1 |
| 20260508031202 | 6 | 5 | 0.0 | 1.6 | 0.00 | 0.58 | 0.58 | 56 | 1007.3 |
| 20260508030659 | 6 | 7 | 0.0 | 1.6 | 0.00 | 0.58 | 0.58 | 57 | 1007.3 |
| 20260508030157 | 7 | 8 | 1.6 | 1.6 | 0.00 | 0.58 | 0.58 | 58 | 1007.0 |
| 20260508025653 | 7 | 8 | 0.0 | 1.6 | 0.00 | 0.58 | 0.58 | 56 | 1007.0 |
| 20260508025150 | 7 | 21 | 0.0 | 1.6 | 0.00 | 0.58 | 0.58 | 56 | 1007.0 |
| 20260508024646 | 7 | 29 | 1.6 | 1.6 | 0.00 | 0.58 | 0.58 | 56 | 1006.7 |
| 20260508024143 | 7 | 3 | 1.6 | 3.2 | 0.00 | 0.58 | 0.58 | 55 | 1006.8 |
| 20260508023639 | 7 | 1 | 1.6 | 3.2 | 0.00 | 0.58 | 0.58 | 52 | 1006.7 |
| 20260508023137 | 7 | 19 | 0.0 | 0.0 | 0.00 | 0.58 | 0.58 | 54 | 1006.7 |
| 20260508022632 | 7 | 23 | 0.0 | 1.6 | 0.00 | 0.58 | 0.58 | 54 | 1006.7 |
| 20260508022130 | 7 | 24 | 0.0 | 1.6 | 0.00 | 0.58 | 0.58 | 55 | 1006.7 |
| 20260508021626 | 7 | 17 | 0.0 | 1.6 | 0.00 | 0.58 | 0.58 | 54 | 1006.9 |
| 20260508021121 | 7 | 3 | 1.6 | 3.2 | 0.00 | 0.58 | 0.58 | 54 | 1006.8 |
| 20260508020620 | 8 | 359 | 1.6 | 1.6 | 0.00 | 0.58 | 0.58 | 51 | 1006.8 |
| 20260508020117 | 8 | 339 | 3.2 | 4.8 | 0.00 | 0.58 | 0.58 | 51 | 1006.8 |
| 20260508015614 | 8 | 329 | 3.2 | 3.2 | 0.00 | 0.58 | 0.58 | 51 | 1006.8 |
| 20260508015111 | 8 | 354 | 1.6 | 3.2 | 0.00 | 0.58 | 0.58 | 51 | 1006.9 |
| 20260508014607 | 8 | 317 | 1.6 | 3.2 | 0.00 | 0.58 | 0.58 | 49 | 1007.0 |
| 20260508014104 | 8 | 5 | 1.6 | 3.2 | 0.00 | 0.58 | 0.58 | 49 | 1006.9 |
| 20260508013600 | 8 | 334 | 1.6 | 4.8 | 0.00 | 0.58 | 0.58 | 51 | 1007.0 |
| 20260508013057 | 8 | 332 | 4.8 | 8.0 | 0.00 | 0.58 | 0.58 | 49 | 1007.0 |
| 20260508012554 | 8 | 25 | 1.6 | 3.2 | 0.00 | 0.58 | 0.58 | 53 | 1007.1 |
| 20260508012052 | 8 | 335 | 3.2 | 8.0 | 0.00 | 0.58 | 0.58 | 50 | 1006.8 |
| 20260508011550 | 9 | 9 | 3.2 | 4.8 | 0.00 | 0.58 | 0.58 | 53 | 1006.9 |
| 20260508011047 | 9 | 2 | 1.6 | 4.8 | 0.00 | 0.58 | 0.58 | 52 | 1006.9 |
| 20260508010543 | 9 | 355 | 0.0 | 3.2 | 0.00 | 0.58 | 0.58 | 52 | 1007.1 |
| 20260508010041 | 9 | 334 | 3.2 | 8.0 | 0.00 | 0.58 | 0.58 | 50 | 1006.9 |
| 20260508005537 | 10 | 10 | 1.6 | 4.8 | 0.00 | 0.58 | 0.58 | 50 | 1006.8 |
| 20260508005034 | 10 | 23 | 3.2 | 9.7 | 0.00 | 0.58 | 0.58 | 49 | 1006.8 |
| 20260508004530 | 10 | 303 | 4.8 | 4.8 | 0.00 | 0.58 | 0.58 | 50 | 1006.6 |
| 20260508004027 | 10 | 335 | 4.8 | 8.0 | 0.00 | 0.58 | 0.58 | 50 | 1006.7 |
| 20260508003523 | 10 | 16 | 3.2 | 8.0 | 0.00 | 0.58 | 0.58 | 50 | 1006.6 |
| 20260508003021 | 10 | 6 | 3.2 | 9.7 | 0.00 | 0.58 | 0.58 | 51 | 1006.6 |
| 20260508002517 | 10 | 313 | 4.8 | 4.8 | 0.00 | 0.58 | 0.58 | 50 | 1006.7 |
| 20260508002015 | 10 | 317 | 6.4 | 8.0 | 0.00 | 0.58 | 0.58 | 50 | 1006.5 |
| 20260508001510 | 10 | 341 | 6.4 | 11.3 | 0.00 | 0.58 | 0.58 | 48 | 1006.4 |
| 20260508001007 | 11 | 281 | 4.8 | 8.0 | 0.00 | 0.58 | 0.58 | 48 | 1006.1 |
| 20260508000503 | 11 | 11 | 6.4 | 14.5 | 0.00 | 0.58 | 0.58 | 50 | 1006.1 |
| 20260508000000 | 11 | 32 | 1.6 | 3.2 | 0.00 | 0.58 | 0.58 | 54 | 1006.0 |
| 20260507235456 | 11 | 330 | 3.2 | 4.8 | 0.00 | 0.58 | 0.58 | 55 | 1005.7 |
| 20260507234954 | 11 | 355 | 6.4 | 12.9 | 0.00 | 0.58 | 0.58 | 54 | 1005.9 |
| 20260507234450 | 12 | 28 | 6.4 | 9.7 | 0.00 | 0.58 | 0.58 | 53 | 1005.5 |
| 20260507233949 | 12 | 41 | 8.0 | 9.7 | 0.00 | 0.58 | 0.58 | 55 | 1005.5 |
| 20260507233444 | 12 | 30 | 4.8 | 9.7 | 0.00 | 0.58 | 0.58 | 57 | 1005.3 |
| 20260507232942 | 12 | 358 | 3.2 | 12.9 | 0.00 | 0.58 | 0.58 | 60 | 1005.3 |
| 20260507232438 | 12 | 302 | 6.4 | 9.7 | 0.00 | 0.58 | 0.58 | 60 | 1005.1 |
| 20260507231936 | 12 | 346 | 4.8 | 9.7 | 0.00 | 0.58 | 0.58 | 70 | 1005.0 |
| 20260507231432 | 12 | 0 | 3.2 | 4.8 | 0.00 | 0.58 | 0.58 | 71 | 1005.0 |
| 20260507230929 | 12 | 21 | 8.0 | 9.7 | 0.00 | 0.58 | 0.58 | 71 | 1004.8 |
| 20260507230426 | 12 | 1 | 1.6 | 4.8 | 0.00 | 0.58 | 0.58 | 70 | 1004.5 |
| 20260507225926 | 12 | 8 | 1.6 | 3.2 | 0.00 | 0.58 | 0.58 | 71 | 1004.6 |
| 20260507225422 | 12 | 27 | 1.6 | 8.0 | 0.00 | 0.58 | 0.58 | 70 | 1004.4 |
| 20260507224919 | 12 | 35 | 3.2 | 8.0 | 0.00 | 0.58 | 0.58 | 71 | 1004.4 |
| 20260507224415 | 12 | 23 | 4.8 | 8.0 | 0.00 | 0.58 | 0.58 | 71 | 1004.1 |
| 20260507223912 | 12 | 27 | 1.6 | 1.6 | 0.00 | 0.58 | 0.58 | 73 | 1004.0 |
| 20260507223408 | 12 | 28 | 0.0 | 1.6 | 0.00 | 0.58 | 0.58 | 70 | 1004.1 |
| 20260507222905 | 12 | 30 | 0.0 | 1.6 | 0.00 | 0.58 | 0.58 | 73 | 1004.1 |
| 20260507222402 | 13 | 27 | 1.6 | 3.2 | 0.00 | 0.58 | 0.58 | 70 | 1004.0 |
| 20260507221859 | 13 | 231 | 0.0 | 0.0 | 0.00 | 0.58 | 0.58 | 70 | 1003.9 |
| 20260507221355 | 13 | 231 | 0.0 | 1.6 | 0.00 | 0.58 | 0.58 | 68 | 1003.9 |
| 20260507220851 | 13 | 134 | 1.6 | 1.6 | 0.00 | 0.58 | 0.58 | 68 | 1004.1 |
| 20260507220349 | 13 | 157 | 1.6 | 1.6 | 0.00 | 0.58 | 0.58 | 67 | 1003.9 |
| 20260507215845 | 13 | 274 | 0.0 | 1.6 | 0.00 | 0.58 | 0.58 | 66 | 1003.9 |
| 20260507215342 | 13 | 154 | 0.0 | 1.6 | 0.00 | 0.58 | 0.58 | 65 | 1003.9 |
| 20260507214839 | 13 | 293 | 0.0 | 0.0 | 0.00 | 0.58 | 0.58 | 65 | 1003.8 |
| 20260507214337 | 13 | 161 | 0.0 | 3.2 | 0.00 | 0.58 | 0.58 | 64 | 1003.8 |
| 20260507213832 | 13 | 274 | 0.0 | 1.6 | 0.00 | 0.58 | 0.58 | 64 | 1003.9 |
| 20260507213329 | 13 | 140 | 1.6 | 1.6 | 0.00 | 0.58 | 0.58 | 63 | 1004.0 |
| 20260507212826 | 13 | 240 | 0.0 | 1.6 | 0.00 | 0.58 | 0.58 | 63 | 1003.9 |
| 20260507212321 | 13 | 289 | 3.2 | 4.8 | 0.00 | 0.58 | 0.58 | 64 | 1004.0 |
| 20260507211818 | 14 | 49 | 0.0 | 1.6 | 0.00 | 0.58 | 0.58 | 67 | 1003.6 |
| 20260507211315 | 14 | 319 | 0.0 | 1.6 | 0.00 | 0.58 | 0.58 | 62 | 1003.9 |
| 20260507210812 | 14 | 246 | 3.2 | 3.2 | 0.00 | 0.58 | 0.58 | 60 | 1003.9 |
| 20260507210309 | 14 | 327 | 3.2 | 4.8 | 0.00 | 0.58 | 0.58 | 59 | 1003.7 |
| 20260507205805 | 15 | 219 | 4.8 | 4.8 | 0.00 | 0.58 | 0.58 | 58 | 1003.7 |
| 20260507205306 | 15 | 204 | 1.6 | 1.6 | 0.00 | 0.58 | 0.58 | 58 | 1003.5 |
| 20260507204758 | 15 | 287 | 0.0 | 1.6 | 0.00 | 0.58 | 0.58 | 61 | 1003.5 |
| 20260507204256 | 15 | 247 | 1.6 | 1.6 | 0.00 | 0.58 | 0.58 | 57 | 1003.3 |
| 20260507203754 | 15 | 231 | 1.6 | 3.2 | 0.00 | 0.58 | 0.58 | 56 | 1003.4 |
| 20260507203251 | 15 | 232 | 1.6 | 1.6 | 0.00 | 0.58 | 0.58 | 53 | 1003.5 |
| 20260507202748 | 15 | 144 | 0.0 | 1.6 | 0.00 | 0.58 | 0.58 | 55 | 1003.3 |
| 20260507202243 | 15 | 56 | 1.6 | 1.6 | 0.00 | 0.58 | 0.58 | 56 | 1003.3 |
| 20260507201738 | 15 | 151 | 1.6 | 3.2 | 0.00 | 0.58 | 0.58 | 53 | 1003.3 |
| 20260507201235 | 15 | 164 | 1.6 | 1.6 | 0.00 | 0.58 | 0.58 | 52 | 1003.5 |
| 20260507200731 | 16 | 242 | 1.6 | 3.2 | 0.00 | 0.58 | 0.58 | 52 | 1003.4 |
| 20260507200228 | 16 | 202 | 1.6 | 9.7 | 0.00 | 0.58 | 0.58 | 51 | 1003.2 |
| 20260507195724 | 16 | 276 | 4.8 | 4.8 | 0.00 | 0.58 | 0.58 | 54 | 1003.5 |
| 20260507195222 | 16 | 200 | 3.2 | 8.0 | 0.00 | 0.58 | 0.58 | 51 | 1003.4 |
| 20260507194719 | 16 | 87 | 1.6 | 1.6 | 0.00 | 0.58 | 0.58 | 51 | 1003.4 |
| 20260507194215 | 16 | 243 | 1.6 | 3.2 | 0.00 | 0.58 | 0.58 | 50 | 1003.1 |
| 20260507193711 | 16 | 0 | 0.0 | 3.2 | 0.00 | 0.58 | 0.58 | 52 | 1003.3 |
| 20260507193208 | 15 | 249 | 6.4 | 9.7 | 0.00 | 0.58 | 0.58 | 50 | 1003.6 |
| 20260507192704 | 15 | 341 | 0.0 | 3.2 | 0.00 | 0.58 | 0.58 | 52 | 1003.7 |
| 20260507192201 | 15 | 2 | 0.0 | 1.6 | 0.00 | 0.58 | 0.58 | 54 | 1003.6 |
| 20260507191657 | 15 | 277 | 3.2 | 8.0 | 0.00 | 0.58 | 0.58 | 53 | 1003.4 |
| 20260507191154 | 15 | 280 | 1.6 | 3.2 | 0.00 | 0.58 | 0.58 | 53 | 1003.4 |
| 20260507190651 | 15 | 213 | 1.6 | 3.2 | 0.00 | 0.58 | 0.58 | 53 | 1003.5 |
| 20260507190150 | 15 | 151 | 1.6 | 3.2 | 0.00 | 0.58 | 0.58 | 52 | 1003.4 |
| 20260507185648 | 15 | 260 | 0.0 | 3.2 | 0.00 | 0.58 | 0.58 | 55 | 1003.6 |
| 20260507185144 | 15 | 343 | 0.0 | 3.2 | 0.00 | 0.58 | 0.58 | 54 | 1003.7 |
| 20260507184642 | 15 | 270 | 1.6 | 1.6 | 0.00 | 0.58 | 0.58 | 49 | 1003.6 |
| 20260507184140 | 15 | 268 | 0.0 | 4.8 | 0.00 | 0.58 | 0.58 | 49 | 1003.9 |
| 20260507183636 | 15 | 202 | 1.6 | 3.2 | 0.00 | 0.58 | 0.58 | 50 | 1003.7 |
| 20260507183133 | 15 | 53 | 0.0 | 3.2 | 0.00 | 0.58 | 0.58 | 49 | 1003.8 |
| 20260507182630 | 15 | 237 | 1.6 | 3.2 | 0.00 | 0.58 | 0.58 | 48 | 1003.8 |
| 20260507182126 | 15 | 292 | 1.6 | 1.6 | 0.00 | 0.58 | 0.58 | 48 | 1003.7 |
| 20260507181622 | 15 | 65 | 1.6 | 4.8 | 0.00 | 0.58 | 0.58 | 47 | 1003.9 |
| 20260507181118 | 15 | 320 | 0.0 | 1.6 | 0.00 | 0.58 | 0.58 | 49 | 1003.9 |
| 20260507180615 | 16 | 200 | 0.0 | 1.6 | 0.00 | 0.58 | 0.58 | 53 | 1004.1 |
| 20260507180112 | 15 | 196 | 3.2 | 4.8 | 0.00 | 0.58 | 0.58 | 47 | 1004.0 |
| 20260507175608 | 15 | 121 | 1.6 | 3.2 | 0.00 | 0.58 | 0.58 | 47 | 1003.9 |
| 20260507175106 | 16 | 217 | 4.8 | 4.8 | 0.00 | 0.58 | 0.58 | 45 | 1004.0 |
| 20260507174602 | 16 | 241 | 1.6 | 1.6 | 0.00 | 0.58 | 0.58 | 47 | 1004.0 |
| 20260507174100 | 15 | 247 | 1.6 | 4.8 | 0.00 | 0.58 | 0.58 | 47 | 1004.1 |
| 20260507173557 | 15 | 332 | 0.0 | 4.8 | 0.00 | 0.58 | 0.58 | 47 | 1004.2 |
| 20260507173054 | 15 | 21 | 3.2 | 4.8 | 0.00 | 0.58 | 0.58 | 45 | 1004.1 |
| 20260507172550 | 16 | 12 | 0.0 | 3.2 | 0.00 | 0.58 | 0.58 | 43 | 1004.0 |
| 20260507172047 | 16 | 225 | 1.6 | 4.8 | 0.00 | 0.58 | 0.58 | 44 | 1004.1 |
| 20260507171542 | 16 | 234 | 1.6 | 4.8 | 0.00 | 0.58 | 0.58 | 46 | 1004.1 |
| 20260507171040 | 15 | 33 | 1.6 | 1.6 | 0.00 | 0.58 | 0.58 | 46 | 1004.3 |
| 20260507170537 | 15 | 38 | 1.6 | 3.2 | 0.00 | 0.58 | 0.58 | 51 | 1004.2 |
| 20260507170034 | 15 | 3 | 0.0 | 8.0 | 0.00 | 0.58 | 0.58 | 50 | 1004.4 |
| 20260507165529 | 15 | 266 | 4.8 | 4.8 | 0.00 | 0.58 | 0.58 | 48 | 1004.3 |
| 20260507165026 | 15 | 257 | 3.2 | 4.8 | 0.00 | 0.58 | 0.58 | 48 | 1004.6 |
| 20260507164522 | 15 | 203 | 3.2 | 8.0 | 0.00 | 0.58 | 0.58 | 49 | 1004.7 |
| 20260507164019 | 15 | 194 | 1.6 | 8.0 | 0.00 | 0.58 | 0.58 | 50 | 1004.7 |
| 20260507163516 | 15 | 355 | 4.8 | 8.0 | 0.00 | 0.58 | 0.58 | 51 | 1004.7 |
| 20260507163015 | 15 | 235 | 3.2 | 4.8 | 0.00 | 0.58 | 0.58 | 49 | 1004.6 |
| 20260507162509 | 14 | 38 | 0.0 | 3.2 | 0.00 | 0.58 | 0.58 | 53 | 1004.7 |
| 20260507162006 | 13 | 33 | 4.8 | 4.8 | 0.00 | 0.58 | 0.58 | 52 | 1004.7 |
| 20260507161503 | 13 | 37 | 1.6 | 3.2 | 0.00 | 0.58 | 0.58 | 52 | 1004.8 |
| 20260507160959 | 13 | 36 | 3.2 | 4.8 | 0.00 | 0.58 | 0.58 | 55 | 1004.7 |
| 20260507160455 | 13 | 72 | 1.6 | 3.2 | 0.00 | 0.58 | 0.58 | 55 | 1004.7 |
| 20260507155951 | 13 | 31 | 3.2 | 4.8 | 0.00 | 0.58 | 0.58 | 53 | 1004.7 |
| 20260507155447 | 13 | 32 | 4.8 | 8.0 | 0.00 | 0.58 | 0.58 | 54 | 1005.1 |
| 20260507154944 | 13 | 26 | 1.6 | 8.0 | 0.00 | 0.58 | 0.58 | 54 | 1005.1 |
| 20260507154441 | 12 | 37 | 3.2 | 3.2 | 0.00 | 0.58 | 0.58 | 59 | 1005.2 |
| 20260507153938 | 13 | 38 | 3.2 | 8.0 | 0.00 | 0.58 | 0.58 | 57 | 1005.3 |
| 20260507153435 | 12 | 28 | 1.6 | 9.7 | 0.00 | 0.58 | 0.58 | 58 | 1005.4 |
| 20260507152931 | 12 | 11 | 3.2 | 4.8 | 0.00 | 0.58 | 0.58 | 63 | 1005.4 |
| 20260507152427 | 13 | 42 | 1.6 | 3.2 | 0.00 | 0.58 | 0.58 | 61 | 1005.4 |
| 20260507151923 | 13 | 323 | 3.2 | 3.2 | 0.00 | 0.58 | 0.58 | 61 | 1005.5 |
| 20260507151420 | 12 | 43 | 0.0 | 3.2 | 0.00 | 0.58 | 0.58 | 65 | 1005.6 |
| 20260507150917 | 12 | 45 | 3.2 | 8.0 | 0.00 | 0.58 | 0.58 | 65 | 1005.6 |
| 20260507150414 | 12 | 45 | 0.0 | 1.6 | 0.00 | 0.58 | 0.58 | 67 | 1005.6 |
| 20260507145910 | 12 | 238 | 4.8 | 4.8 | 0.00 | 0.58 | 0.58 | 68 | 1005.8 |
| 20260507145406 | 12 | 49 | 1.6 | 1.6 | 0.00 | 0.58 | 0.58 | 69 | 1005.9 |
| 20260507144903 | 11 | 31 | 0.0 | 1.6 | 0.00 | 0.58 | 0.58 | 71 | 1005.9 |
| 20260507144400 | 12 | 74 | 0.0 | 0.0 | 0.00 | 0.58 | 0.58 | 72 | 1006.0 |
| 20260507143857 | 11 | 45 | 0.0 | 0.0 | 0.00 | 0.58 | 0.58 | 71 | 1006.1 |
| 20260507143354 | 11 | 21 | 1.6 | 3.2 | 0.00 | 0.58 | 0.58 | 73 | 1006.2 |
| 20260507142851 | 11 | 28 | 3.2 | 4.8 | 0.00 | 0.58 | 0.58 | 74 | 1005.9 |
| 20260507142347 | 11 | 38 | 1.6 | 3.2 | 0.00 | 0.58 | 0.58 | 74 | 1006.0 |
| 20260507141844 | 11 | 53 | 0.0 | 1.6 | 0.00 | 0.58 | 0.58 | 74 | 1006.0 |
| 20260507141340 | 10 | 23 | 1.6 | 3.2 | 0.00 | 0.58 | 0.58 | 75 | 1006.1 |
| 20260507140837 | 10 | 47 | 1.6 | 8.0 | 0.00 | 0.58 | 0.58 | 76 | 1006.2 |
| 20260507140334 | 10 | 35 | 1.6 | 9.7 | 0.00 | 0.58 | 0.58 | 76 | 1006.2 |
| 20260507135832 | 10 | 22 | 3.2 | 4.8 | 0.00 | 0.58 | 0.58 | 77 | 1006.4 |
| 20260507135328 | 10 | 48 | 1.6 | 4.8 | 0.00 | 0.58 | 0.58 | 78 | 1006.1 |
| 20260507134826 | 10 | 44 | 3.2 | 3.2 | 0.00 | 0.58 | 0.58 | 77 | 1006.4 |
| 20260507134322 | 10 | 41 | 4.8 | 8.0 | 0.00 | 0.58 | 0.58 | 77 | 1006.2 |
| 20260507133817 | 10 | 7 | 4.8 | 4.8 | 0.00 | 0.58 | 0.58 | 77 | 1006.2 |
| 20260507133313 | 10 | 44 | 3.2 | 8.0 | 0.00 | 0.58 | 0.58 | 81 | 1006.3 |
| 20260507132812 | 10 | 35 | 1.6 | 3.2 | 0.00 | 0.58 | 0.58 | 82 | 1006.1 |
| 20260507132308 | 10 | 22 | 3.2 | 9.7 | 0.00 | 0.58 | 0.58 | 83 | 1006.4 |
| 20260507131805 | 9 | 22 | 3.2 | 9.7 | 0.00 | 0.58 | 0.58 | 83 | 1006.0 |
| 20260507131302 | 10 | 16 | 3.2 | 9.7 | 0.00 | 0.58 | 0.58 | 82 | 1006.3 |
| 20260507130759 | 9 | 26 | 3.2 | 8.0 | 0.00 | 0.58 | 0.58 | 83 | 1006.4 |
| 20260507130256 | 9 | 24 | 3.2 | 8.0 | 0.00 | 0.58 | 0.58 | 85 | 1006.4 |
| 20260507125755 | 9 | 21 | 4.8 | 4.8 | 0.00 | 0.58 | 0.58 | 85 | 1006.5 |
| 20260507125252 | 9 | 4 | 4.8 | 9.7 | 0.00 | 0.58 | 0.58 | 85 | 1006.5 |
| 20260507124749 | 9 | 280 | 4.8 | 12.9 | 0.00 | 0.58 | 0.58 | 86 | 1006.3 |
| 20260507124245 | 8 | 15 | 6.4 | 9.7 | 0.00 | 0.58 | 0.58 | 87 | 1006.2 |
| 20260507123744 | 8 | 18 | 6.4 | 9.7 | 0.00 | 0.58 | 0.58 | 87 | 1005.9 |
| 20260507123241 | 8 | 26 | 4.8 | 9.7 | 0.00 | 0.58 | 0.58 | 89 | 1006.3 |
| 20260507122737 | 8 | 23 | 4.8 | 11.3 | 0.00 | 0.58 | 0.58 | 88 | 1006.6 |